Showing default

GOOD ANCESTOR KILAKILA, 64528

Orbit data source: Space-Track

GOOD ANCESTOR KILAKILA, 64528 is a Solomon Islander payload satellite in SSO that was launched on Mon, 23 Jun 2025 UTC via an FALCON 9 launch vehicle from the Air Force Western Test Range (AFWTR). Payload-class satellites include a variety of spacecraft equipped with specific instruments for various scientific and technological missions. These include communications satellites like Starlink; space stations such as the ISS; scientific satellites like the Hubble; Earth observation satellites from companies like Planet Labs, Umbra, and HawkEye 360; GPS; miniature CubeSats for education and research; and military/defense satellites.

Loading next visibility...
Identifier
64528, 2025-135A
Orbit
SSO
Country
Flag of SBSB / SLB
Related business
Manufacturer
GAF
Mission
Operational Amateur Communications
Bus & Motor
CUBESAT 2U, Unknown motor
Mass
2 kg wet, 2 kg dry
Launch date (UTC)
2025-06-23 (11 months ago)
Launch vehicle
FALCON 9
Launch site
Air Force Western Test Range (AFWTR)
Object type
Payload
Rocket body
Debris
Shape & HBR
Box, 0.1 m
Radar Cross Section
0.025 m², Small (<0.1 m²)

Expand to show TLE details & history
Last TLE update: 17 hours ago

TLE from 17 hours ago
0 GOOD ANCESTOR KILAKILA
1 64528U 25135A   26132.84470722  .00005220  00000-0  22171-3 0  9994
2 64528  97.4587 248.2624 0003805 319.0902  41.0049 15.23501002 49500
Epoch: 2026-05-12T20:16Z
TLE epoch observation values (Epoch: 2026-05-12T20:16:22.703Z)
Latitude
-0.00003°
Longitude
73.55456°
Altitude
496.41 km
Speed
7.618 km/s
True Right ascension
16h 33m 02s
True Declination
0° 00' 00"
Sunlit
Object was in full shadow at epoch
Visualization orbit readout
Latitude
Unknown
Longitude
Unknown
Altitude
Unknown
Speed
Unknown
Apparent Right ascension
Unknown
Apparent Declination
Unknown
Sunlit
N/A
Visualization observer readout
Local Sidereal Time
21:11:56
Azimuth
Unknown
Elevation
Unknown
Doppler factor
Unknown
Orbital elements
Apogee altitude
494.868 km
Perigee altitude
489.64 km
Semi-major axis
6,870.391 km
Eccentricity
0.00038
Inclination
97.4587°
RAAN
248.2624°
Arg. of periapsis
319.0902°
True anomaly
41.03352°
Mean anomaly
41.0049°
Eccentric anomaly
41.01921°
Mean motion
3.81128 °/min
Orbital period
94.46 mins
BSTAR
0.00022171
Loading maneuver chart data...
Computing Atmospheric mass density...
Loading historical data...
Loading historical data...
Loading historical data...
Loading historical data...
Loading historical data...
Loading historical data...
Loading historical data...

Documentation

Showing up to 5 results
|